Regional Weather Roundup
Issued by NWS Wakefield, VA

Home | Current Version | Previous Version | Text Only | Print | Product List | Glossary Off
Versions: 1 2 3 4 5 6 7 8 9 10 11 12 13 14 15 16 17 18 19 20 21 22 23 24 25 26 27 28 29 30 31 32 33 34 35 36 37 38 39 40 41 42 43 44 45 46 47 48 49 50

000
ASUS41 KAKQ 010514
RWRAKQ
REGIONAL WEATHER ROUNDUP
NATIONAL WEATHER SERVICE WAKEFIELD VA
100 AM EDT WED APR 01 2015

Note: "fair" indicates few or no clouds below 12,000 feet with no
significant weather and/or obstructions to visibility. * = Denotes
station may not report precipitation (e.g., rain,snow,etc.),
thunder or fog.

VAZ042-051-052>054-056-010600-
NORTHERN VIRGINIA

CITY           SKY/WX    TMP DP  RH WIND       PRES   REMARKS
WASH NATIONAL  PTCLDY    44  32  62 N24G32    29.93R
DULLES         MOCLDY    41  29  62 N17G25    29.93R
FORT BELVOIR   PTCLDY    44  34  69 N8G22     29.93R
QUANTICO       PTCLDY    47  33  58 N12G23    29.93R
FREDERICKSBRG* PTCLDY    49  37  65 N10G22    29.91R
STAFFORD*      PTCLDY    45  34  64 N20G25    29.95R
WARRENTON      PTCLDY    45  40  81 N15G21    29.91R
CULPEPER*      PTCLDY    46  37  71 N13       29.91R
MANASSAS*      PTCLDY    43  34  70 N13G26    29.92R
LEESBURG*      PTCLDY    41  32  70 N10       29.95R
WINCHESTER     PTCLDY    43  28  56 N5        29.93S
FRONT ROYAL*   FAIR      41  32  70 NE6       29.93R
LURAY*         FAIR      48  32  53 N8        29.91R
$$

VAZ048-049-060>072-079>083-010600-
CENTRAL AND SOUTH CENTRAL VIRGINIA

CITY           SKY/WX    TMP DP  RH WIND       PRES   REMARKS
RICHMOND       PTCLDY    55  38  52 N13       29.87R
CHESTERFIELD*  NOT AVBL
PETERSBURG*    PTCLDY    57  37  47 N10G16    29.87R
HANOVER        PTCLDY    51  37  58 VRB7      29.90R
TAPPAHANNOCK*  PTCLDY    51  34  51 NW9G18    29.89R
QUINTON*       FAIR      54  39  58 N9        29.87R
CHARLOTTSVILLE MOCLDY    53  34  48 N6        29.87R
GORDONSVILLE*  FAIR      47  38  69 CALM      29.87R
ORANGE*        PTCLDY    50  36  57 N12G18    29.90R
LOUISA*        PTCLDY    50  37  62 N9        29.87R
BUMPASS*       FAIR      49  37  62 N7        29.88R
FARMVILLE*     CLEAR     54  38  55 CALM      29.85R
CREWE*         FAIR      55  37  50 MISG      29.86R
FORT PICKETT*  FAIR      55  38  53 NE7       29.85R
CHASE CITY*    CLOUDY    62  41  45 NE6       29.84R
CLARKSVILLE*   CLOUDY    63  34  34 N5        29.82R
SOUTH HILL*    PTCLDY    58  38  47 N8        29.89R
LAWRENCEVILLE* FAIR      57  39  50 NE5       29.84R
EMPORIA*       PTCLDY    55  37  50 N5        29.86R
$$

VAZ088>098-010600-
SOUTHEAST VIRGINIA

CITY           SKY/WX    TMP DP  RH WIND       PRES   REMARKS
NORFOLK        PTCLDY    51  43  74 N10       29.83R
VIRGINIA BEACH PTCLDY    57  40  52 N14       29.83R
NORFOLK NAVAL  PTCLDY    56  43  61 N17       29.85R
WEST POINT*    PTCLDY    56  37  49 N7G18     29.88R
SALUDA*        FAIR      50  41  71 N14G21    29.87R
NEWPORT NEWS   PTCLDY    56  43  61 NE7       29.85R
LANGLEY AFB    CLEAR     55  43  62 N15G21    29.82R
FORT EUSTIS    PTCLDY    55  44  67 VRB3      29.83R
WILLIAMSBURG*  PTCLDY    55  45  67 N9G17     29.86R
HR EXEC AP*    FAIR      54  41  62 NE6       29.85R
FRANKLIN*      CLEAR    N/A N/A N/A N6        29.85R
WAKEFIELD      PTCLDY    56  39  53 N7        29.85R
$$

VAZ020-022-025-037-045-010600-
WEST CENTRAL AND SOUTHWEST VIRGINIA

CITY           SKY/WX    TMP DP  RH WIND       PRES   REMARKS
STAUNTON*      MOCLDY    47  34  60 NE5       29.91R
WAYNESBORO*    FAIR      49  32  51 NW8       29.87R
HOT SPRINGS VA CLEAR     40  30  67 NW13G18   29.85R
LYNCHBURG      FAIR      52  32  46 NW5       29.87R
DANVILLE       CLEAR     60  36  40 N8        29.83R
SOUTH BOSTON*  MOCLDY    62  32  32 N6        29.84R
MARTINSVILLE   CLEAR     63  32  31 N13       29.87R
ROANOKE        CLEAR     56  32  40 NW12      29.89R
BLACKSBURG     CLEAR     50  33  52 NW9       29.93R
DUBLIN*        CLEAR     53  36  51 NW6       29.93R
MARION*        CLEAR     55  30  38 NW10G20   29.95R
HILLSVILLE*    CLEAR     55  31  40 NW15      29.90S
RICHLANDS*     FAIR      50  32  49 NW10G18   29.96R
WISE*          CLEAR     52  30  43 N8        29.98S
ABINGDON*      CLEAR     58  30  33 N8        29.94R
$$

MDZ021>025-VAZ099-100-010600-
SOUTHERN MARYLAND AND THE DELMARVA PENINSULA

CITY           SKY/WX    TMP DP  RH WIND       PRES   REMARKS
PATUXENT RIVER PTCLDY    43  37  79 N17       29.90R
BAY BRIDGE APT   N/A     41  32  70 N14G23    29.92R
LEONARDTOWN    MOCLDY    45  34  65 NW5       29.92R
DOVER          MOCLDY    39  38  97 NW15      29.88R
GEORGETOWN     CLOUDY    41  38  89 N8        29.87R
EASTON         CLOUDY    43  38  80 NE13G20   29.93R
CAMBRIDGE      MOCLDY    43  34  70 N13G21    29.89R
SALISBURY      PTCLDY    42  38  85 NW13      29.86R
OCEAN CITY     CLOUDY    45  41  86 N17       29.84R FOG
WALLOPS ISLAND MOCLDY    49  43  80 N12       29.84R
ACCOMACK*      MOCLDY    50  37  62 NW17G25   29.85R
$$

NCZ012>017-030>032-010600-
NORTH CENTRAL AND EASTERN NORTH CAROLINA

CITY           SKY/WX    TMP DP  RH WIND       PRES   REMARKS
ROANOKE RAPIDS FAIR      59  39  47 NE15      29.82R
RALEIGH        MOCLDY    60  40  47 W5        29.81R
ELIZABETH CITY PTCLDY    57  43  59 N13       29.83R
AHOSKIE*       PTCLDY    59  39  48 N14G23    29.84R
EDENTON*       MOCLDY    60  42  50 N9        29.81R
CURRITUCK*     PTCLDY    57  42  58 N14       29.83R
KILL DEVIL HLS PTCLDY    58  45  60 W8        29.77S
MANTEO         MOCLDY    59  45  58 NW13G22   29.81R
CAPE HATTERAS  PTCLDY    62  53  72 SW22G35   29.78F
TARBORO*       FAIR      61  43  51 N10G20    29.82R
GOLDSBORO      CLEAR     57  56  95 CALM      29.79R
WASHINGTON     PTCLDY    58  45  60 SW9       29.78S
GREENVILLE     CLEAR     59  45  58 SW8       29.81S
NEW BERN       CLEAR     60  48  64 SW9       29.81F
WILMINGTON     CLEAR     63  55  75 SW12      29.84F
$$

VAZ048-010600-
ELSEWHERE

CITY           SKY/WX    TMP DP  RH WIND       PRES   REMARKS
HARRISBURG PA  PTCLDY    36  27  69 NW6       29.94R
BALTIMORE      PTCLDY    39  29  67 N14G22    29.92R
ANNAPOLIS      CLEAR     41  31  67 N20G26    29.91R
ANDREWS AFB    CLEAR     39  30  70 N13       29.91R
PHILADELPHIA   CLEAR     38  32  79 NW14      29.89R
HENDERSON NC   CLOUDY    62  31  32 NW6       29.82R
GREENSBORO     PTCLDY    62  40  44 NW7       29.83R
ROCKY MOUNT    MOCLDY    56  42  59 SW6       29.78S
$$

VAZ100-010600-
MARINE

STATION/POSITION TIME  TEMP    WIND        PRES    WAVE   SWELL
                       AIR SEA DIR/SP/G            HT/PER HT/PER
                 (UTC) (F)     (DEG/KT/KT) (MB)    (FT/S) (FT/S)
BRANDYWINE LGT   0400   40 40   10/ 18/ 22 1010.0R
CAPE MAY NJ      0400   39 43   10/  6/ 13 1009.4R
LEWES DE         0400   41 43  350/ 16/ 21 1010.0R
15NM E FENWICK I 0450   40 40              1009.5R   4/ 6
OCEAN-CITY-INLET 0400   48 42  350/  5/  5 1008.6R
WACHAPREAGUE VA  0400   52 52  340/  3/  5 1009.2R
THOMAS POINT MD  0500                        N/A
COVE POINT MD    0400   43      30/ 19/ 21 1011.0R
SOLOMONS ISLAND  0400      44                N/A
BISHOPS HEAD MD  0400          340/ 18/ 21 1010.3R
PINEY POINT MD   0400           30/ 12/ 14   N/A
CAMBRIDGE MD     0400   44 45  360/ 13/ 17 1010.8R
LEWISETTA VA     0400   47 44              1010.7R
RAPPAHANNOCK LGT 0400          360/ 14/ 15 1010.1R
STINGRAY PT      0500   48 46  360/ 17/ 21   N/A     1/ 2
YORK RVR RNG VA  0400   52      20/ 14/ 15 1009.0R
YORKTOWN VA      0400   54 46   10/ 10/ 13 1009.5R
DOMINION TERM VA 0400   57      20/  4/  9 1009.3R
KIPTOPEKE VA     0400      51   20/ 11/ 18   N/A
CHES BAY BRIDGE  0400   51 44  350/ 19/ 21 1008.3R
CAPE HENRY VA    0400   51     350/ 10/ 12 1007.6R
CHESAPEAKE LGHT  0400   50      10/ 20/ 20 1008.9R
WILLOUBY STN VA  0400   56      10/ 14/ 17 1009.7R
S CRANEY ISL VA  0400           10/ 14/ 17 1009.1R
CAPE HENRY BUOY  0428      42                N/A     3/ 5
1ST LANDING BUOY 0500   50     360/ 17/ 23 1009.5R   2/ 3
OFFSHORE WE BUOY 0411      41                N/A     3/ 5   2/15
64NM E OF VA BCH 0450   52 49  330/ 10/ 14 1008.5R   5/ 6   5/ 6
DUCK PIER NC     0400   60 42  320/ 19/ 35 1007.7R
44056 DUCK FRF   0411      42                N/A     2/10
OREGON INLET NC  0400   56 54  210/ 18/ 21 1007.2F
HATTERAS NC      0400   63 58  230/ 17/ 24 1009.0F
CAPE LOOKOUT NC  0500   61     230/ 14/ 17 1009.6F
$$


USA.gov is the U.S. government's official web portal to all federal, state and local government web resources and services.